Find Starlink 6182

NORAD ID: 56878 Int'l Des: 2023-083 Owner: SPXS Country: US Constellation: starlink operational
LEOCIRCULAR

Live Position

Loading 3D Globe...

About Starlink 6182

Description loading...

Upcoming Passes

Passes for default location (London). Set your location on the main map for personalized predictions.

Altitude History

Loading altitude history...

Two-Line Element Set

1 56878U 23083C 26126.00370926 .00000873 00000-0 42228-4 0 9994
2 56878 43.0032 121.7035 0001139 271.4476 88.6245 15.26743512160390
Epoch: May 6, 2026 • Age: 12 hours

Current Status

Altitude 488.2 km
Velocity 7.62 km/s
Sub-Earth Point -15.05°S, 88.21°W
Launch Date Jun 12, 2023
Age 2.8 years
Type internet

Technical Details

Classification Payload
Mass 305.00 kg
Dry Mass 290.00 kg
Total Mass 305.00 kg
Length 0.20 m
Diameter 2.80 m
Span 9.00 m
Shape Box + pan
Manufacturer SPXS
Bus Type Starlink
Phase Status In Orbit
Owner/State SPXS/US

Most Searched